N3KJE Weather Reports


time (UTC)temp
C
wind
direction
speed
KPH
gust
KPH
rain 1hr
cm
rain 24hr
cm
rain mn
cm
humidity
%
barometer
mb
20260505091504 16 19 1.6 4.8 0.00 0.10 0.10 74 1011.4
20260505090504 17 135 3.2 4.8 0.00 0.10 0.10 74 1011.3
20260505090004 17 154 3.2 8.0 0.00 0.10 0.10 74 1011.3
20260505085005 17 126 1.6 8.0 0.00 0.10 0.10 74 1011.3
20260505084004 17 164 1.6 4.8 0.00 0.10 0.10 73 1011.3
20260505083504 17 164 4.8 8.0 0.00 0.10 0.10 73 1011.3
20260505082504 17 164 3.2 9.7 0.00 0.10 0.10 73 1011.3
20260505081004 17 210 3.2 9.7 0.00 0.10 0.10 74 1011.4
20260505075004 17 186 4.8 19.3 0.00 0.10 0.10 75 1011.5
20260505074004 17 267 1.6 9.7 0.00 0.10 0.10 75 1011.4
20260505073004 17 334 1.6 11.3 0.00 0.10 0.10 76 1011.3
20260505072504 17 34 1.6 16.1 0.00 0.10 0.10 76 1011.3
20260505071504 17 74 3.2 11.3 0.00 0.10 0.10 76 1011.2
20260505071005 17 129 3.2 11.3 0.00 0.10 0.10 76 1011.3
20260505065505 17 228 3.2 9.7 0.00 0.10 0.10 77 1011.2
20260505064505 17 197 4.8 12.9 0.00 0.10 0.10 77 1011.2
20260505063504 17 102 3.2 4.8 0.00 0.10 0.10 77 1011.1
20260505063005 17 28 3.2 19.3 0.00 0.10 0.10 77 1011.1
20260505062504 17 199 3.2 9.7 0.00 0.10 0.10 76 1011.1
20260505062005 17 162 4.8 11.3 0.00 0.10 0.10 76 1011.1
20260505061504 17 215 3.2 11.3 0.00 0.10 0.10 76 1011.1
20260505061004 17 307 4.8 12.9 0.00 0.10 0.10 76 1011.1
20260505060505 17 49 3.2 14.5 0.00 0.10 0.10 77 1011.1
20260505055005 17 211 4.8 12.9 0.00 0.10 0.10 77 1011.1
20260505054005 17 152 3.2 8.0 0.00 0.10 0.10 77 1011.2
20260505052504 17 169 3.2 12.9 0.00 0.10 0.10 77 1011.2
20260505051504 17 355 3.2 11.3 0.05 0.10 0.10 77 1011.2
20260505050504 17 179 3.2 11.3 0.10 0.10 0.10 77 1011.3
20260505040505 17 197 4.8 14.5 0.00 0.00 0.00 76 1011.4
20260505040005 17 187 3.2 19.3 0.00 0.00 0.00 76 1011.4
20260505035004 17 155 3.2 11.3 0.00 0.00 0.00 76 1011.3
20260505034505 17 268 3.2 8.0 0.00 0.00 0.00 76 1011.3
20260505033504 17 129 1.6 4.8 0.00 0.00 0.00 76 1011.3
20260505033004 17 298 1.6 4.8 0.00 0.00 0.00 76 1011.2
20260505032504 17 108 3.2 8.0 0.00 0.00 0.00 76 1011.3
20260505031004 17 167 3.2 9.7 0.00 0.00 0.00 76 1011.1
20260505024005 17 182 1.6 9.7 0.00 0.00 0.00 76 1011.4
20260505023004 17 160 3.2 11.3 0.00 0.00 0.00 76 1011.4
20260505022505 17 169 1.6 4.8 0.00 0.00 0.00 76 1011.3
20260505021504 17 148 3.2 4.8 0.00 0.00 0.00 75 1011.4
20260505021004 17 183 6.4 12.9 0.00 0.00 0.00 75 1011.5
20260505014504 17 140 3.2 12.9 0.00 0.00 0.00 75 1011.4
20260505013505 17 149 4.8 11.3 0.00 0.00 0.00 74 1011.4
20260505013004 17 179 3.2 11.3 0.00 0.00 0.00 75 1011.4
20260505012005 17 160 3.2 14.5 0.00 0.00 0.00 74 1011.4
20260505010505 17 150 3.2 9.7 0.00 0.00 0.00 73 1011.3
20260505010004 17 140 3.2 8.0 0.00 0.00 0.00 73 1011.3
20260505003504 17 126 3.2 8.0 0.00 0.00 0.00 72 1011.2
20260505003005 17 102 1.6 4.8 0.00 0.00 0.00 71 1011.3
20260505002505 17 160 3.2 8.0 0.00 0.00 0.00 71 1011.3
20260505002004 17 175 3.2 8.0 0.00 0.00 0.00 70 1011.3
20260505001005 18 165 1.6 8.0 0.00 0.00 0.00 69 1011.2
20260505000505 18 178 4.8 14.5 0.00 0.00 0.00 69 1011.1
20260505000004 18 175 4.8 8.0 0.00 0.00 0.00 69 1011.1
20260504234504 18 16 1.6 8.0 0.00 0.00 0.00 66 1010.9
20260504234005 18 121 3.2 8.0 0.00 0.00 0.00 65 1010.9
20260504232505 19 198 3.2 8.0 0.00 0.00 0.00 63 1010.7
20260504231004 20 135 4.8 11.3 0.00 0.00 0.00 61 1010.6
20260504223504 21 169 3.2 19.3 0.00 0.00 0.00 56 1010.7
20260504223004 21 136 4.8 16.1 0.00 0.00 0.00 54 1010.6
20260504222504 21 150 4.8 19.3 0.00 0.00 0.00 53 1010.6
20260504222004 21 187 4.8 19.3 0.00 0.00 0.00 52 1010.6
20260504221504 22 152 8.0 14.5 0.00 0.00 0.00 51 1010.6
20260504220504 23 157 8.0 19.3 0.00 0.00 0.00 45 1010.5
20260504215004 23 119 3.2 16.1 0.00 0.00 0.00 36 1010.6
20260504213505 24 3 4.8 12.9 0.00 0.00 0.00 36 1010.6
20260504213005 24 223 6.4 16.1 0.00 0.00 0.00 34 1010.6
20260504212004 24 231 6.4 16.1 0.00 0.00 0.00 33 1010.6
20260504210504 24 255 3.2 14.5 0.00 0.00 0.00 33 1010.5
20260504205504 24 59 3.2 16.1 0.00 0.00 0.00 33 1010.6
20260504203504 24 310 4.8 19.3 0.00 0.00 0.00 35 1010.7
20260504202504 24 188 4.8 19.3 0.00 0.00 0.00 35 1010.6
20260504201504 25 254 6.4 19.3 0.00 0.00 0.00 35 1010.7
20260504201004 25 236 3.2 12.9 0.00 0.00 0.00 35 1010.8
20260504200504 25 215 4.8 12.9 0.00 0.00 0.00 34 1010.7
20260504200005 24 293 3.2 8.0 0.00 0.00 0.00 34 1010.8
20260504195504 24 275 3.2 12.9 0.00 0.00 0.00 33 1010.9
20260504195005 24 212 4.8 16.1 0.00 0.00 0.00 34 1010.9
20260504194505 24 249 4.8 11.3 0.00 0.00 0.00 33 1011.0
20260504194004 24 249 4.8 14.5 0.00 0.00 0.00 33 1011.0
20260504193504 24 260 4.8 12.9 0.00 0.00 0.00 33 1011.1
20260504192505 25 166 4.8 14.5 0.00 0.00 0.00 34 1011.1
20260504192004 24 236 4.8 14.5 0.00 0.00 0.00 33 1011.2
20260504191005 24 14 4.8 9.7 0.00 0.00 0.00 34 1011.3
20260504190504 24 100 4.8 14.5 0.00 0.00 0.00 33 1011.4
20260504185505 24 221 3.2 11.3 0.00 0.00 0.00 36 1011.5
20260504184504 24 188 8.0 19.3 0.00 0.00 0.00 32 1011.6
20260504184004 24 225 4.8 16.1 0.00 0.00 0.00 34 1011.6
20260504183504 24 264 4.8 11.3 0.00 0.00 0.00 36 1011.6
20260504182505 23 297 8.0 16.1 0.00 0.00 0.00 34 1011.8
20260504181504 23 260 3.2 11.3 0.00 0.00 0.00 35 1011.9
20260504181005 23 308 6.4 14.5 0.00 0.00 0.00 35 1011.9
20260504180505 23 241 6.4 12.9 0.00 0.00 0.00 33 1012.0
20260504180004 23 273 6.4 24.1 0.00 0.00 0.00 34 1012.0
20260504175504 23 271 4.8 12.9 0.00 0.00 0.00 33 1012.1
20260504175004 23 218 6.4 16.1 0.00 0.00 0.00 33 1012.2
20260504173005 23 282 4.8 14.5 0.00 0.00 0.00 34 1012.4
20260504172004 23 292 6.4 12.9 0.00 0.00 0.00 34 1012.5
20260504171504 23 355 4.8 14.5 0.00 0.00 0.00 34 1012.6
20260504170504 23 215 4.8 12.9 0.00 0.00 0.00 38 1012.7
20260504140505 18 181 3.2 8.0 0.00 0.00 0.00 55 1014.1
20260504130504 17 148 3.2 8.0 0.00 0.00 0.00 60 1014.9
20260504110505 11 136 1.6 4.8 0.00 0.00 0.00 79 1015.6